• Join FlightAware (Why Join?)
  • Login
  • US Flag GB Flag 
08:30 EST


 

Airport Tracker/Info


-or-


 

Live Flight TrackerFlight Track Log ✈ ASQ5745 ✈ 19-Jul-2013 ✈ KIAD - KALB

Flight Track Log - Related Links

Times and Time Zones

All times are in EDT time to prevent confusion due to time zone crossing. See the ASQ5745 flight status page for this flight to view local times or setup timezone preferences in your user account.

Time Position Orientation Groundspeed Altitude Reporting Facility
EDT Latitude Longitude Course Direction KTS MPH feet Rate Location/Type
08:21 38.9667 -77.5333 North 188 216 1,800  Level Potomac TRACON
08:23 39.2193 -77.4500 North  Level FlightAware Approximate
08:23 39.1142 -77.5631 351° North 255 293 6,000  Level Washington Center
08:24 39.3146 -77.4500 North  Level FlightAware Approximate
08:24 39.1786 -77.5622 North 266 306 7,800  Level Washington Center
08:25 39.4099 -77.4500 North  Level FlightAware Approximate
08:25 39.2767 -77.5675 358° North 281 323 10,100  Level Washington Center
08:26 39.5052 -77.4500 North  Level FlightAware Approximate
08:26 39.3597 -77.5725 357° North 292 336 12,100  Level Washington Center
08:27 39.4458 -77.5372 18° North 298 343 13,300 900 Climbing Washington Center
08:29 39.6339 -77.4594 18° North 356 410 14,900 900 Climbing New York Center
08:30 39.7511 -77.4517 North 375 432 16,100 1,140 Climbing New York Center
08:31 39.8453 -77.4469 North 380 437 17,200 1,020 Climbing New York Center
08:32 39.9519 -77.3678 30° Northeast 383 441 18,200 840 Climbing New York Center
08:33 40.0369 -77.3000 31° Northeast 397 457 18,900 780 Climbing New York Center
08:34 40.1331 -77.2219 32° Northeast 403 464 19,800 840 Climbing New York Center
08:35 40.2289 -77.1467 31° Northeast 403 464 20,600 720 Climbing New York Center
08:36 40.3253 -77.0628 34° Northeast 403 464 21,300 600 Climbing New York Center
08:37 40.4250 -76.9875 30° Northeast 403 464 21,900 540 Climbing New York Center
08:38 40.5233 -76.9033 33° Northeast 408 470 22,500 540 Climbing New York Center
08:39 40.6233 -76.8194 32° Northeast 408 470 23,000 480 Climbing New York Center
08:40 40.7236 -76.7350 33° Northeast 414 476 23,500 480 Climbing New York Center
08:41 40.8258 -76.6508 32° Northeast 427 491 24,000 480 Climbing New York Center
08:42 40.9300 -76.5664 31° Northeast 434 499 24,500 480 Climbing New York Center
08:43 41.0319 -76.4814 32° Northeast 434 499 25,000 480 Climbing New York Center
08:44 41.1319 -76.3961 33° Northeast 434 499 25,500 540 Climbing New York Center
08:45 41.2319 -76.3081 34° Northeast 434 499 26,100 540 Climbing New York Center
08:46 41.3492 -76.2069 33° Northeast 445 512 26,600 420 Climbing New York Center
08:47 41.4531 -76.1214 32° Northeast 451 519 27,000 120 Climbing New York Center
08:48 41.5547 -76.0353 32° Northeast 445 512 26,900 -540 Descending New York Center
08:49 41.6392 -75.9642 32° Northeast 445 512 26,000 -480 Descending New York Center
08:50 41.7625 -75.8569 33° Northeast 450 518 26,000 -300 Level New York Center
08:52 41.9472 -75.6950 33° Northeast 447 514 25,200 -600 Descending Boston Center
08:53 42.0519 -75.6053 32° Northeast 446 513 24,300 -960 Descending Boston Center
08:54 42.1567 -75.5125 33° Northeast 446 513 23,300 -1,320 Descending Boston Center
08:55 42.2633 -75.4225 32° Northeast 446 513 21,700 -1,560 Descending Boston Center
08:56 42.3333 -75.2936 54° Northeast 426 490 20,200 -1,620 Descending Boston Center
08:57 42.3786 -75.1383 68° East 424 488 18,500 -1,800 Descending Boston Center
08:58 42.4244 -74.9658 70° East 424 488 16,600 -1,800 Descending Boston Center
08:59 42.4672 -74.8156 69° East 433 498 15,000 -1,560 Descending Boston Center
09:00 42.5078 -74.6622 70° East 426 490 13,500 -1,560 Descending Boston Center
09:01 42.5389 -74.5647 67° East 425 489 12,400 -1,560 Descending Boston Center
09:02 42.5792 -74.4167 70° East 421 484 10,900 -1,140 Descending Boston Center
09:03 42.6167 -74.2908 68° East 346 398 10,200 -1,200 Descending Boston Center
09:04 42.6500 -74.1678 70° East 306 352 8,500 -1,740 Descending Boston Center
09:05 42.6967 -74.1011 46° Northeast 291 335 6,900 -1,860 Descending Boston Center
09:06 42.7725 -74.0494 27° Northeast 281 323 5,000 -1,740 Descending Boston Center
09:07 42.8358 -73.9917 34° Northeast 276 318 3,400 -1,200 Descending Boston Center
09:08 42.8581 -73.8931 73° East 256 295 2,500 -840 Descending Boston Center